EDT,Max TemperatureF,Mean TemperatureF,Min TemperatureF,Max Dew PointF,MeanDew PointF,Min DewpointF,Max Humidity, Mean Humidity, Min Humidity, Max Sea Level PressureIn, Mean Sea Level PressureIn, Min Sea Level PressureIn, Max VisibilityMiles, Mean VisibilityMiles, Min VisibilityMiles, Max Wind SpeedMPH, Mean Wind SpeedMPH, Max Gust SpeedMPH,PrecipitationIn, CloudCover, Events, WindDirDegrees
2012-9-1,87,78,69,77,73,70,100,83,62,30.13,30.08,30.03,10,10,7,12,4,17,0.01,1,Rain,217
2012-9-2,84,78,71,79,74,72,100,92,70,30.06,30.04,29.99,10,10,7,7,1,,0.00,5,Rain-Thunderstorm,120
2012-9-3,80,74,69,77,73,70,100,93,78,30.08,30.04,30.01,10,10,7,10,2,25,0.06,7,Rain,136
2012-9-4,84,76,69,77,73,70,100,93,79,30.06,29.98,29.91,10,9,3,12,3,16,0.08,5,Rain,166
2012-9-5,87,79,71,77,75,72,100,92,70,29.91,29.86,29.82,10,10,5,12,6,16,0.00,4,Thunderstorm,177
2012-9-6,82,75,68,73,71,68,100,91,62,29.98,29.91,29.85,10,8,1,17,2,22,1.33,3,Rain-Thunderstorm,135
2012-9-7,87,78,68,73,71,68,100,85,62,29.98,29.93,29.86,10,9,5,8,2,,0.00,0,,147
2012-9-8,86,75,64,73,68,64,100,92,62,29.89,29.77,29.63,10,9,2,17,4,28,0.40,4,Rain,167
2012-9-9,77,65,53,64,57,54,100,75,44,30.01,29.92,29.86,10,10,2,9,2,,0.00,2,,288
2012-9-10,73,63,53,57,53,50,100,70,44,30.21,30.10,30.01,10,10,10,12,4,17,0.00,1,,318
2012-9-11,75,62,50,61,52,50,100,78,41,30.34,30.28,30.21,10,10,7,6,1,,0.00,0,,23
2012-9-12,78,63,48,61,56,48,100,82,47,30.38,30.34,30.32,10,10,3,9,1,,0.00,0,,121
2012-9-13,78,64,50,63,56,50,100,81,39,30.40,30.34,30.29,10,10,10,6,1,,0.00,0,,98
2012-9-14,78,64,51,64,59,52,100,84,54,30.31,30.22,30.14,10,10,7,13,2,,0.00,0,,180
2012-9-15,73,63,53,63,55,50,100,76,44,30.26,30.19,30.14,10,10,7,13,4,20,0.00,1,,336
2012-9-16,71,61,51,59,55,52,100,84,53,30.20,30.15,30.10,10,10,7,7,1,,0.00,2,,172
2012-9-17,69,60,50,68,60,50,100,95,83,30.13,30.08,29.97,10,9,0,7,1,,0.25,7,Rain,149
2012-9-18,75,70,66,73,69,64,100,100,89,29.96,29.77,29.65,10,9,4,18,7,32,0.98,8,Rain,159
2012-9-19,68,59,50,63,53,48,100,77,49,30.19,30.08,29.88,10,10,10,10,3,,0.00,2,,355
2012-9-20,73,58,44,61,53,45,100,85,56,30.20,30.14,30.07,10,10,7,9,1,,0.00,1,,167
2012-9-21,80,66,51,66,60,52,100,86,54,30.10,30.03,29.97,10,9,0,7,1,,0.00,0,Fog,136
2012-9-22,82,71,60,68,64,54,100,82,56,29.97,29.90,29.83,10,10,7,14,5,21,0.00,2,,172
2012-9-23,68,58,48,54,47,43,100,67,40,30.18,30.11,29.96,10,10,3,12,5,16,0.00,1,,340
2012-9-24,68,56,44,50,46,41,100,73,37,30.26,30.20,30.16,10,10,4,8,1,,0.00,2,,255
2012-9-25,73,57,41,59,50,41,100,79,47,30.21,30.17,30.08,10,10,5,14,3,17,0.00,1,Rain,170
2012-9-26,82,68,55,66,62,55,100,82,54,30.16,30.13,30.09,10,10,10,13,5,20,0.00,0,Thunderstorm,168
2012-9-27,82,70,59,68,65,59,100,86,58,30.19,30.13,30.06,10,9,1,9,3,24,0.26,1,Rain-Thunderstorm,102
2012-9-28,78,68,59,70,65,59,100,95,74,30.12,30.05,29.99,10,7,0,12,2,17,0.51,6,Fog-Rain-Thunderstorm,346
2012-9-29,69,62,55,59,55,50,100,85,52,30.05,29.99,29.93,10,9,4,7,1,,0.00,6,Rain,350
2012-9-30,71,58,46,55,53,46,100,79,46,29.96,29.90,29.83,10,10,3,10,3,17,0.00,3,,181